Weather History for KNJK - December, 2011

Change the Weather History Date:

Tuesday, December 27, 2011

  Actual Average Record
Temperature  
Mean Temperature 50 °F -  
Max Temperature 66 °F 66 °F 75 °F (2013)
Min Temperature 34 °F 46 °F 34 °F (2011)
Degree Days  
Heating Degree Days 15    
Moisture  
Dew Point 26 °F    
Average Humidity 44    
Maximum Humidity 70    
Minimum Humidity 21    
Precipitation  
Precipitation 0.00 in - - ()
Sea Level Pressure  
Sea Level Pressure 30.26 in    
Wind  
Wind Speed 2 mph (WSW)    
Max Wind Speed 5 mph    
Max Gust Speed -    
Visibility 10 miles    
Events      
Averages and records for this station are not official NWS values.
T = Trace of Precipitation, MM = Missing Value Source: NWS Daily Summary

Daily Weather History Graph

Daily Weather History Graph

Search for Another Location

Airport or City:

Trip Planner

Search our weather history database for the weather conditions in past years. The results will help you decide how hot, cold, wet, or windy it might be!

Date:

Astronomy

Dec. 27, 2011 Rise Set
Actual Time 6:43 AM PST 4:43 PM PST
Civil Twilight 6:16 AM PST 5:11 PM PST
Nautical Twilight 5:45 AM PST 5:41 PM PST
Astronomical Twilight 5:15 AM PST 6:11 PM PST
Moon 8:50 AM PST (12/27) 8:10 PM PST (12/27)
Length of Visible Light 10h 54m
Length of Day
10h 00m
Waxing Crescent, 11% of the Moon is Illuminated
Dec 27
Waxing Crescent
Dec 31
First Quarter
Jan 8
Full
Jan 16
Last Quarter
Jan 22
New

Hourly Weather History & Observations

Time (PST) Temp. Windchill Dew Point Humidity Pressure Visibility Wind Dir Wind Speed Gust Speed Precip Events Conditions
12:56 AM 37.9 °F - 26.1 °F 62% 30.28 in 10.0 mi North - - N/A   Clear
1:56 AM 41.0 °F - 23.0 °F 49% 30.27 in 10.0 mi North - - N/A   Clear
2:56 AM 39.0 °F - 24.1 °F 55% 30.26 in 10.0 mi North - - N/A   Clear
3:56 AM 35.1 °F - 26.1 °F 70% 30.26 in 10.0 mi North - - N/A   Clear
4:56 AM 35.1 °F - 25.0 °F 67% 30.26 in 10.0 mi North - - N/A   Clear
5:56 AM 37.9 °F 34.4 °F 24.1 °F 57% 30.26 in 10.0 mi West 4.6 mph - N/A   Clear
6:56 AM 34.0 °F - 21.9 °F 61% 30.27 in 10.0 mi Calm Calm - N/A   Clear
7:56 AM 39.9 °F - 27.0 °F 60% 30.28 in 10.0 mi Calm Calm - N/A   Partly Cloudy
8:56 AM 48.9 °F - 28.0 °F 44% 30.30 in 10.0 mi Calm Calm - N/A   Partly Cloudy
9:56 AM 55.4 °F - 28.4 °F 36% 30.25 in 10.0 mi Calm Calm - N/A   Scattered Clouds
10:56 AM 61.0 °F - 24.1 °F 24% 30.28 in 10.0 mi Calm Calm - N/A   Scattered Clouds
11:56 AM 64.0 °F - 23.0 °F 21% 30.26 in 10.0 mi Calm Calm - N/A   Scattered Clouds
12:56 PM 64.9 °F - 28.9 °F 26% 30.23 in 10.0 mi NNW 4.6 mph - N/A   Scattered Clouds
1:56 PM 66.0 °F - 28.0 °F 24% 30.22 in 10.0 mi Calm Calm - N/A   Scattered Clouds
2:56 PM 66.9 °F - 25.0 °F 21% 30.22 in 10.0 mi NW 3.5 mph - N/A   Scattered Clouds
3:56 PM 64.9 °F - 30.9 °F 28% 30.22 in 10.0 mi SW 4.6 mph - N/A   Scattered Clouds
4:56 PM 60.1 °F - 25.0 °F 26% 30.23 in 10.0 mi SSW 3.5 mph - N/A   Scattered Clouds
5:56 PM 55.9 °F - 25.0 °F 30% 30.25 in 10.0 mi SSW 3.5 mph - N/A   Scattered Clouds
6:56 PM 53.1 °F - 27.0 °F 37% 30.25 in 10.0 mi Calm Calm - N/A   Clear
7:56 PM 51.8 °F - 30.2 °F 44% 30.22 in 10.0 mi Calm Calm - N/A   Clear
8:56 PM 45.0 °F - 30.0 °F 56% 30.28 in 10.0 mi Calm Calm - N/A   Clear
9:56 PM 45.0 °F 43.5 °F 27.0 °F 49% 30.30 in 10.0 mi WSW 3.5 mph - N/A   Clear
10:56 PM 41.0 °F 39.0 °F 27.0 °F 57% 30.29 in 10.0 mi SSW 3.5 mph - N/A   Clear
11:56 PM 41.0 °F 39.0 °F 26.1 °F 55% 30.28 in 10.0 mi SSW 3.5 mph - N/A   Clear